Home   Weather   Youngstown   Past weeks
Flag for USA

Past Weather in Youngstown, Ohio, USA — Yesterday and Last 2 Weeks

Now
39 °F

Overcast.


Feels Like: 36 °F
Forecast: 54 / 39 °F
Wind: 5 mph from Southwest

Location: Youngstown-Warren Regional Airport

Current Time: Oct 18, 2019 at 5:02:32 am

Latest Report: Oct 18, 2019 at 3:51 am


Visibility: 10 mi

Pressure: 29.98 "Hg

Humidity: 89%

Dew Point: 36 °F

Location of YoungstownLocation

Past Weather in Youngstown — Graph

°F

Youngstown Temperature Yesterday

Maximum temperature yesterday: 46 °F (at 11:51 am)
Minimum temperature yesterday: 40 °F (at 11:51 pm)
Average temperature yesterday: 45 °F

High & Low Weather Summary for the Past Weeks

 TemperatureHumidityPressure
High84 °F (Oct 3, 1:51 pm)96% (Oct 7, 10:51 pm)30.37 "Hg (Oct 7, 10:51 pm)
Low33 °F (Oct 15, 4:51 am)26% (Oct 13, 4:51 pm)29.62 "Hg (Oct 16, 6:51 am)
Average54 °F72%30.05 "Hg
* Reported Oct 3 2:51 am — Oct 18 2:51 am, Youngstown. Weather by CustomWeather, © 2019

Note: Actual official high and low records may vary slightly from our data, if they occured in-between our weather recording intervals... More about our weather records

Advertising

Youngstown Weather History for the Previous 24 Hours

Scroll right to see more
 ConditionsComfort  
Time TempWeatherWind HumidityBarometerVisibility
2:51 am
Fri, Oct 18
39 °FPassing clouds.3 mph86%29.97 "Hg10 mi
1:51 am41 °FOvercast.3 mph86%29.96 "Hg10 mi
12:51 am40 °FPassing clouds.No wind86%29.96 "Hg10 mi
11:51 pm
Thu, Oct 17
40 °FPassing clouds.No wind83%29.96 "Hg10 mi
10:51 pm45 °FMostly cloudy.6 mph74%29.95 "Hg10 mi
9:51 pm45 °FOvercast.No wind74%29.94 "Hg10 mi
8:51 pm45 °FMostly cloudy.5 mph74%29.93 "Hg10 mi
7:51 pm45 °FOvercast.7 mph71%29.91 "Hg10 mi
6:51 pm46 °FOvercast.9 mph66%29.89 "Hg10 mi
5:51 pm46 °FMostly cloudy.13 mph68%29.88 "Hg10 mi
4:51 pm46 °FMostly cloudy.17 mph66%29.87 "Hg10 mi
3:51 pm46 °FMostly cloudy.15 mph68%29.85 "Hg10 mi
2:51 pm46 °FMostly cloudy.17 mph66%29.84 "Hg10 mi
2:22 pm46 °FMore clouds than sun.16 mph66%29.82 "Hg10 mi
1:51 pm46 °FMostly cloudy.16 mph68%29.83 "Hg10 mi
12:51 pm45 °FOvercast.17 mph68%29.82 "Hg10 mi
11:51 am46 °FMostly cloudy.17 mph66%29.81 "Hg10 mi
9:51 am44 °FOvercast.21 mph71%29.77 "Hg10 mi
8:51 am44 °FOvercast.22 mph71%29.77 "Hg10 mi
7:51 am45 °FOvercast.15 mph71%29.74 "Hg10 mi
6:51 am45 °FOvercast.18 mph74%29.71 "Hg10 mi
5:51 am44 °FOvercast.12 mph79%29.69 "Hg10 mi
5:35 am44 °FOvercast.13 mph79%29.68 "Hg10 mi
Weather by CustomWeather, © 2019

See weather overview